User: anonymous   Login
Location: Unspecified
(0.0000°N, 0.0000°E)
Time: 00:14:11
(UTC+00:00)
Language:

DX 1 - Orbit

View from above orbital plane
View from above orbital plane
View from above satellite
View from above satellite

Ground track
Ground track

The orbit data is extracted from the following two-line orbital elements,

1 40071U 14037C   17328.38454434  .00000226  00000-0  36475-4 0  9992
2 40071  98.3525  85.9606 0007166 259.0089 101.0325 14.81092126182684
Epoch (UTC): 24 November 2017 09:13:44
Eccentricity: 0.0007166
inclination: 98.3525°
perigee height: 621 km
apogee height: 631 km
right ascension of ascending node: 85.9606°
argument of perigee: 259.0089°
revolutions per day: 14.81092126
mean anomaly at epoch: 101.0325°
orbit number at epoch: 18268

The dashed part of the orbit path shows where the satellite is in the earth's shadow,  

DLR